Time,TemperatureF,DewpointF,PressureIn,WindDirection,WindDirectionDegrees,WindSpeedMPH,WindSpeedGustMPH,Humidity,HourlyPrecipIn,Conditions,Clouds,dailyrainin,SoftwareType,DateUTC
2013-03-02 00:00:00,24.2,15.8,30.28,NNW,329,0.0,0.0,70,0.00,,,0.00,Wunderground v.1.15,2013-03-02 06:00:00,
2013-03-02 00:10:00,24.2,15.5,30.28,NNE,31,2.0,2.0,69,0.00,,,0.00,Wunderground v.1.15,2013-03-02 06:10:00,
2013-03-02 00:20:00,24.2,15.5,30.28,NNW,340,0.0,0.0,69,0.00,,,0.00,Wunderground v.1.15,2013-03-02 06:20:00,
2013-03-02 00:30:00,24.2,15.5,30.28,NNW,346,0.0,0.0,69,0.00,,,0.00,Wunderground v.1.15,2013-03-02 06:30:00,
2013-03-02 00:40:00,24.2,15.5,30.28,NNW,336,0.0,0.0,69,0.00,,,0.00,Wunderground v.1.15,2013-03-02 06:40:00,
2013-03-02 00:50:00,24.2,15.8,30.28,NNE,14,0.0,0.0,70,0.00,,,0.00,Wunderground v.1.15,2013-03-02 06:50:00,
2013-03-02 01:00:00,24.2,15.8,30.28,NNE,24,0.0,0.0,70,0.00,,,0.00,Wunderground v.1.15,2013-03-02 07:00:00,
2013-03-02 01:10:00,24.2,15.8,30.28,NNE,18,0.0,7.0,70,0.00,,,0.00,Wunderground v.1.15,2013-03-02 07:10:00,
2013-03-02 01:20:00,24.2,15.8,30.28,NNE,18,0.0,7.0,70,0.00,,,0.00,Wunderground v.1.15,2013-03-02 07:20:00,
2013-03-02 01:30:00,24.2,15.8,30.28,NNE,15,0.0,7.0,70,0.00,,,0.00,Wunderground v.1.15,2013-03-02 07:30:00,
2013-03-02 01:40:00,24.2,15.8,30.28,NNE,19,1.0,1.0,70,0.00,,,0.00,Wunderground v.1.15,2013-03-02 07:40:00,
2013-03-02 01:50:00,24.4,16.0,30.27,NNE,13,0.0,7.0,70,0.00,,,0.00,Wunderground v.1.15,2013-03-02 07:50:00,
2013-03-02 02:00:00,24.4,15.7,30.27,NNE,12,0.0,7.0,69,0.00,,,0.00,Wunderground v.1.15,2013-03-02 08:00:00,
2013-03-02 02:10:00,24.4,15.7,30.27,NNE,25,0.0,7.0,69,0.00,,,0.00,Wunderground v.1.15,2013-03-02 08:10:00,
2013-03-02 02:20:00,24.4,15.7,30.27,NNE,25,0.0,7.0,69,0.00,,,0.00,Wunderground v.1.15,2013-03-02 08:20:00,
2013-03-02 02:30:00,24.2,15.5,30.26,NNE,25,0.0,7.0,69,0.00,,,0.00,Wunderground v.1.15,2013-03-02 08:30:00,
2013-03-02 02:40:00,24.2,15.5,30.26,NNE,26,0.0,7.0,69,0.00,,,0.00,Wunderground v.1.15,2013-03-02 08:40:00,
2013-03-02 02:50:00,24.2,15.5,30.26,NW,322,0.0,7.0,69,0.00,,,0.00,Wunderground v.1.15,2013-03-02 08:50:00,
2013-03-02 03:00:00,24.1,15.7,30.26,NNW,338,1.0,1.0,70,0.00,,,0.00,Wunderground v.1.15,2013-03-02 09:00:00,
2013-03-02 03:10:00,23.8,15.8,30.26,North,360,1.0,1.0,71,0.00,,,0.00,Wunderground v.1.15,2013-03-02 09:10:00,
2013-03-02 03:20:00,23.5,15.8,30.26,NNE,29,0.0,7.0,72,0.00,,,0.00,Wunderground v.1.15,2013-03-02 09:20:00,
2013-03-02 03:30:00,23.2,15.8,30.26,NNE,29,0.0,7.0,73,0.00,,,0.00,Wunderground v.1.15,2013-03-02 09:30:00,
2013-03-02 03:40:00,23.0,15.6,30.26,North,360,0.0,7.0,73,0.00,,,0.00,Wunderground v.1.15,2013-03-02 09:40:00,
2013-03-02 03:50:00,22.9,15.5,30.26,NNW,346,0.0,7.0,73,0.00,,,0.00,Wunderground v.1.15,2013-03-02 09:50:00,
2013-03-02 04:00:00,22.7,15.7,30.26,North,11,1.0,1.0,74,0.00,,,0.00,Wunderground v.1.15,2013-03-02 10:00:00,
2013-03-02 04:10:00,22.5,15.5,30.26,NW,314,0.0,7.0,74,0.00,,,0.00,Wunderground v.1.15,2013-03-02 10:10:00,
2013-03-02 04:20:00,22.5,15.5,30.26,NW,305,1.0,1.0,74,0.00,,,0.00,Wunderground v.1.15,2013-03-02 10:20:00,
2013-03-02 04:30:00,22.4,15.7,30.27,NNW,327,1.0,7.0,75,0.00,,,0.00,Wunderground v.1.15,2013-03-02 10:30:00,
2013-03-02 04:40:00,22.1,15.4,30.27,NW,323,1.0,1.0,75,0.00,,,0.00,Wunderground v.1.15,2013-03-02 10:40:00,
2013-03-02 04:50:00,21.8,15.1,30.27,NW,322,2.0,7.0,75,0.00,,,0.00,Wunderground v.1.15,2013-03-02 10:50:00,
2013-03-02 05:00:00,21.4,14.7,30.27,NW,324,2.0,7.0,75,0.00,,,0.00,Wunderground v.1.15,2013-03-02 11:00:00,
2013-03-02 05:10:00,21.3,14.6,30.27,NW,321,1.0,8.0,75,0.00,,,0.00,Wunderground v.1.15,2013-03-02 11:10:00,
2013-03-02 05:20:00,21.1,14.7,30.28,NW,326,2.0,2.0,76,0.00,,,0.00,Wunderground v.1.15,2013-03-02 11:20:00,
2013-03-02 05:30:00,21.0,14.6,30.28,NNW,329,1.0,1.0,76,0.00,,,0.00,Wunderground v.1.15,2013-03-02 11:30:00,
2013-03-02 05:40:00,20.8,14.4,30.28,NNW,329,1.0,7.0,76,0.00,,,0.00,Wunderground v.1.15,2013-03-02 11:40:00,
2013-03-02 05:50:00,20.6,14.2,30.28,NW,317,2.0,7.0,76,0.00,,,0.00,Wunderground v.1.15,2013-03-02 11:50:00,
2013-03-02 06:00:00,20.3,13.9,30.28,NW,316,2.0,2.0,76,0.00,,,0.00,Wunderground v.1.15,2013-03-02 12:00:00,
2013-03-02 06:10:00,20.0,13.6,30.28,NW,319,1.0,1.0,76,0.00,,,0.00,Wunderground v.1.15,2013-03-02 12:10:00,
2013-03-02 06:20:00,19.5,13.2,30.28,NW,319,0.0,7.0,76,0.00,,,0.00,Wunderground v.1.15,2013-03-02 12:20:00,
2013-03-02 06:30:00,19.2,12.9,30.28,NW,320,0.0,7.0,76,0.00,,,0.00,Wunderground v.1.15,2013-03-02 12:30:00,
2013-03-02 06:40:00,18.8,12.5,30.28,NW,320,0.0,7.0,76,0.00,,,0.00,Wunderground v.1.15,2013-03-02 12:40:00,
2013-03-02 06:50:00,18.4,12.1,30.29,NW,321,0.0,7.0,76,0.00,,,0.00,Wunderground v.1.15,2013-03-02 12:50:00,
2013-03-02 07:00:00,18.0,12.0,30.28,NW,320,0.0,7.0,77,0.00,,,0.00,Wunderground v.1.15,2013-03-02 13:00:00,
2013-03-02 07:10:00,17.8,11.8,30.28,NW,320,0.0,7.0,77,0.00,,,0.00,Wunderground v.1.15,2013-03-02 13:10:00,
2013-03-02 07:20:00,17.7,12.0,30.28,NW,320,0.0,7.0,78,0.00,,,0.00,Wunderground v.1.15,2013-03-02 13:20:00,
2013-03-02 07:30:00,17.7,12.3,30.30,NW,318,1.0,7.0,79,0.00,,,0.00,Wunderground v.1.15,2013-03-02 13:30:00,
2013-03-02 07:40:00,17.7,12.3,30.30,NW,318,1.0,7.0,79,0.00,,,0.00,Wunderground v.1.15,2013-03-02 13:40:00,
2013-03-02 07:50:00,17.8,12.7,30.30,NW,317,0.0,7.0,80,0.00,,,0.00,Wunderground v.1.15,2013-03-02 13:50:00,
2013-03-02 08:00:00,18.0,12.9,30.30,NW,309,1.0,1.0,80,0.00,,,0.00,Wunderground v.1.15,2013-03-02 14:00:00,
2013-03-02 08:10:00,18.3,13.2,30.30,NNW,330,1.0,7.0,80,0.00,,,0.00,Wunderground v.1.15,2013-03-02 14:10:00,
2013-03-02 08:20:00,18.8,13.4,30.29,NNW,333,1.0,1.0,79,0.00,,,0.00,Wunderground v.1.15,2013-03-02 14:20:00,
2013-03-02 08:30:00,19.1,13.4,30.30,WNW,302,2.0,7.0,78,0.00,,,0.00,Wunderground v.1.15,2013-03-02 14:30:00,
2013-03-02 08:40:00,19.4,13.4,30.30,NW,325,2.0,7.0,77,0.00,,,0.00,Wunderground v.1.15,2013-03-02 14:40:00,
2013-03-02 08:50:00,19.9,13.9,30.30,North,355,3.0,7.0,77,0.00,,,0.00,Wunderground v.1.15,2013-03-02 14:50:00,
2013-03-02 09:00:00,20.2,13.8,30.30,NW,317,1.0,1.0,76,0.00,,,0.00,Wunderground v.1.15,2013-03-02 15:00:00,
2013-03-02 09:10:00,20.5,13.8,30.30,NW,317,2.0,7.0,75,0.00,,,0.00,Wunderground v.1.15,2013-03-02 15:10:00,
2013-03-02 09:20:00,21.0,14.0,30.30,NNW,338,2.0,7.0,74,0.00,,,0.00,Wunderground v.1.15,2013-03-02 15:20:00,
2013-03-02 09:30:00,21.4,14.1,30.30,NW,318,2.0,2.0,73,0.00,,,0.00,Wunderground v.1.15,2013-03-02 15:30:00,
2013-03-02 09:40:00,21.8,14.5,30.30,NW,307,2.0,2.0,73,0.00,,,0.00,Wunderground v.1.15,2013-03-02 15:40:00,
2013-03-02 09:50:00,22.2,14.5,30.30,NNW,327,1.0,1.0,72,0.00,,,0.00,Wunderground v.1.15,2013-03-02 15:50:00,
2013-03-02 10:00:00,22.4,14.7,30.30,North,11,2.0,7.0,72,0.00,,,0.00,Wunderground v.1.15,2013-03-02 16:00:00,
2013-03-02 10:10:00,22.7,15.0,30.30,NNW,329,2.0,2.0,72,0.00,,,0.00,Wunderground v.1.15,2013-03-02 16:10:00,
2013-03-02 10:20:00,23.3,15.3,30.30,NW,318,2.0,7.0,71,0.00,,,0.00,Wunderground v.1.15,2013-03-02 16:20:00,
2013-03-02 10:30:00,23.3,15.3,30.29,NW,316,3.0,3.0,71,0.00,,,0.00,Wunderground v.1.15,2013-03-02 16:30:00,
2013-03-02 10:40:00,23.2,14.9,30.29,NNW,327,3.0,7.0,70,0.00,,,0.00,Wunderground v.1.15,2013-03-02 16:40:00,
2013-03-02 10:50:00,23.6,14.9,30.29,North,355,2.0,7.0,69,0.00,,,0.00,Wunderground v.1.15,2013-03-02 16:50:00,
2013-03-02 11:00:00,23.9,15.5,30.29,NW,320,3.0,3.0,70,0.00,,,0.00,Wunderground v.1.15,2013-03-02 17:00:00,
2013-03-02 11:10:00,24.2,15.2,30.29,NNW,336,2.0,7.0,68,0.00,,,0.00,Wunderground v.1.15,2013-03-02 17:10:00,
2013-03-02 11:20:00,24.7,15.6,30.29,WNW,302,2.0,2.0,68,0.00,,,0.00,Wunderground v.1.15,2013-03-02 17:20:00,
2013-03-02 11:30:00,25.3,15.9,30.28,NNW,347,1.0,1.0,67,0.00,,,0.00,Wunderground v.1.15,2013-03-02 17:30:00,
2013-03-02 11:40:00,25.4,16.0,30.28,NNW,333,1.0,1.0,67,0.00,,,0.00,Wunderground v.1.15,2013-03-02 17:40:00,
2013-03-02 11:50:00,25.8,16.0,30.28,West,279,0.0,7.0,66,0.00,,,0.00,Wunderground v.1.15,2013-03-02 17:50:00,
2013-03-02 12:00:00,26.1,15.9,30.28,NNW,330,1.0,1.0,65,0.00,,,0.01,Wunderground v.1.15,2013-03-02 18:00:00,
2013-03-02 12:10:00,26.3,15.8,30.28,WNW,301,1.0,1.0,64,0.00,,,0.01,Wunderground v.1.15,2013-03-02 18:10:00,
2013-03-02 12:20:00,26.0,15.5,30.27,WNW,284,2.0,7.0,64,0.00,,,0.01,Wunderground v.1.15,2013-03-02 18:20:00,
2013-03-02 12:30:00,26.3,15.8,30.26,NW,304,2.0,2.0,64,0.00,,,0.02,Wunderground v.1.15,2013-03-02 18:30:00,
2013-03-02 12:40:00,26.4,15.9,30.26,NNW,346,1.0,7.0,64,0.00,,,0.02,Wunderground v.1.15,2013-03-02 18:40:00,
2013-03-02 12:50:00,27.3,16.4,30.25,WNW,293,1.0,1.0,63,0.00,,,0.02,Wunderground v.1.15,2013-03-02 18:50:00,
2013-03-02 13:00:00,26.6,15.3,30.25,WNW,298,1.0,7.0,62,0.00,,,0.03,Wunderground v.1.15,2013-03-02 19:00:00,
2013-03-02 13:10:00,27.3,16.0,30.25,NW,309,1.0,1.0,62,0.00,,,0.03,Wunderground v.1.15,2013-03-02 19:10:00,
2013-03-02 13:20:00,27.3,16.0,30.25,NNW,334,2.0,7.0,62,0.00,,,0.04,Wunderground v.1.15,2013-03-02 19:20:00,
2013-03-02 13:30:00,27.6,15.5,30.24,WNW,287,2.0,2.0,60,0.00,,,0.04,Wunderground v.1.15,2013-03-02 19:30:00,
2013-03-02 13:40:00,27.6,15.5,30.24,NW,313,1.0,7.0,60,0.00,,,0.05,Wunderground v.1.15,2013-03-02 19:40:00,
2013-03-02 13:50:00,28.2,16.5,30.24,West,276,1.0,7.0,61,0.00,,,0.05,Wunderground v.1.15,2013-03-02 19:50:00,
2013-03-02 14:00:00,27.9,15.8,30.23,West,266,2.0,7.0,60,0.00,,,0.06,Wunderground v.1.15,2013-03-02 20:00:00,
2013-03-02 14:10:00,28.5,16.0,30.23,West,268,1.0,1.0,59,0.00,,,0.06,Wunderground v.1.15,2013-03-02 20:10:00,
2013-03-02 14:20:00,28.4,16.3,30.23,WNW,296,1.0,7.0,60,0.04,,,0.07,Wunderground v.1.15,2013-03-02 20:20:00,
2013-03-02 14:30:00,28.5,16.7,30.23,NW,321,3.0,3.0,61,0.04,,,0.08,Wunderground v.1.15,2013-03-02 20:30:00,
2013-03-02 14:40:00,28.7,16.6,30.23,WNW,299,1.0,1.0,60,0.04,,,0.08,Wunderground v.1.15,2013-03-02 20:40:00,
2013-03-02 14:50:00,29.1,16.5,30.22,WNW,299,1.0,1.0,59,0.00,,,0.09,Wunderground v.1.15,2013-03-02 20:50:00,
2013-03-02 15:00:00,28.8,16.3,30.22,WNW,290,1.0,7.0,59,0.05,,,0.10,Wunderground v.1.15,2013-03-02 21:00:00,
2013-03-02 15:10:00,28.5,16.4,30.22,West,274,2.0,2.0,60,0.05,,,0.10,Wunderground v.1.15,2013-03-02 21:10:00,
2013-03-02 15:20:00,29.0,16.4,30.22,WNW,293,1.0,1.0,59,0.00,,,0.11,Wunderground v.1.15,2013-03-02 21:20:00,
2013-03-02 15:30:00,29.5,16.5,30.21,NW,315,0.0,7.0,58,0.00,,,0.11,Wunderground v.1.15,2013-03-02 21:30:00,
2013-03-02 15:40:00,29.0,16.1,30.21,NW,315,0.0,7.0,58,0.00,,,0.12,Wunderground v.1.15,2013-03-02 21:40:00,
2013-03-02 15:50:00,29.0,16.1,30.21,NW,309,1.0,1.0,58,0.00,,,0.12,Wunderground v.1.15,2013-03-02 21:50:00,
2013-03-02 16:00:00,29.4,16.8,30.21,NW,309,0.0,7.0,59,0.00,,,0.12,Wunderground v.1.15,2013-03-02 22:00:00,
2013-03-02 16:10:00,29.0,16.1,30.21,West,271,1.0,1.0,58,0.00,,,0.13,Wunderground v.1.15,2013-03-02 22:10:00,
2013-03-02 16:20:00,29.1,16.5,30.22,West,271,0.0,7.0,59,0.00,,,0.13,Wunderground v.1.15,2013-03-02 22:20:00,
2013-03-02 16:30:00,29.1,16.5,30.21,WSW,244,1.0,7.0,59,0.00,,,0.13,Wunderground v.1.15,2013-03-02 22:30:00,
2013-03-02 16:40:00,29.1,15.7,30.21,NNW,336,1.0,7.0,57,0.00,,,0.13,Wunderground v.1.15,2013-03-02 22:40:00,
2013-03-02 16:50:00,29.0,16.1,30.21,West,269,0.0,7.0,58,0.00,,,0.13,Wunderground v.1.15,2013-03-02 22:50:00,
2013-03-02 17:00:00,29.0,16.4,30.20,West,269,0.0,7.0,59,0.00,,,0.14,Wunderground v.1.15,2013-03-02 23:00:00,
2013-03-02 17:10:00,28.8,16.3,30.20,West,269,1.0,7.0,59,0.00,,,0.14,Wunderground v.1.15,2013-03-02 23:10:00,
2013-03-02 17:20:00,29.0,16.8,30.20,West,269,0.0,7.0,60,0.00,,,0.14,Wunderground v.1.15,2013-03-02 23:20:00,
2013-03-02 17:30:00,29.0,16.4,30.20,West,263,1.0,1.0,59,0.00,,,0.14,Wunderground v.1.15,2013-03-02 23:30:00,
2013-03-02 17:40:00,28.8,16.6,30.20,West,263,0.0,7.0,60,0.00,,,0.14,Wunderground v.1.15,2013-03-02 23:40:00,
2013-03-02 17:50:00,28.5,16.7,30.20,West,263,0.0,7.0,61,0.00,,,0.14,Wunderground v.1.15,2013-03-02 23:50:00,
2013-03-02 18:00:00,28.1,16.4,30.20,West,263,0.0,7.0,61,0.00,,,0.14,Wunderground v.1.15,2013-03-03 00:00:00,
2013-03-02 18:10:00,27.8,16.1,30.20,West,263,0.0,7.0,61,0.00,,,0.14,Wunderground v.1.15,2013-03-03 00:10:00,
2013-03-02 18:20:00,27.5,16.2,30.20,West,263,0.0,7.0,62,0.00,,,0.14,Wunderground v.1.15,2013-03-03 00:20:00,
2013-03-02 18:30:00,27.2,15.5,30.20,West,263,0.0,7.0,61,0.00,,,0.14,Wunderground v.1.15,2013-03-03 00:30:00,
2013-03-02 18:40:00,26.7,15.0,30.20,West,263,0.0,7.0,61,0.00,,,0.14,Wunderground v.1.15,2013-03-03 00:40:00,
2013-03-02 18:50:00,26.3,15.0,30.20,West,263,0.0,7.0,62,0.00,,,0.14,Wunderground v.1.15,2013-03-03 00:50:00,
2013-03-02 19:00:00,26.0,15.1,30.20,West,263,0.0,7.0,63,0.00,,,0.14,Wunderground v.1.15,2013-03-03 01:00:00,
2013-03-02 19:10:00,25.6,15.1,30.20,West,263,0.0,7.0,64,0.00,,,0.14,Wunderground v.1.15,2013-03-03 01:10:00,
2013-03-02 19:20:00,25.3,15.5,30.19,West,263,0.0,7.0,66,0.00,,,0.14,Wunderground v.1.15,2013-03-03 01:20:00,
2013-03-02 19:30:00,25.0,15.2,30.19,West,263,0.0,7.0,66,0.00,,,0.14,Wunderground v.1.15,2013-03-03 01:30:00,
2013-03-02 19:40:00,24.7,14.9,30.19,West,263,0.0,7.0,66,0.00,,,0.14,Wunderground v.1.15,2013-03-03 01:40:00,
2013-03-02 19:50:00,24.4,15.3,30.19,West,263,0.0,7.0,68,0.00,,,0.14,Wunderground v.1.15,2013-03-03 01:50:00,
2013-03-02 20:00:00,24.2,15.5,30.18,West,263,0.0,7.0,69,0.00,,,0.14,Wunderground v.1.15,2013-03-03 02:00:00,
2013-03-02 20:10:00,24.2,15.5,30.18,West,263,0.0,7.0,69,0.00,,,0.14,Wunderground v.1.15,2013-03-03 02:10:00,
2013-03-02 20:20:00,24.2,15.8,30.18,West,263,0.0,7.0,70,0.00,,,0.14,Wunderground v.1.15,2013-03-03 02:20:00,
2013-03-02 20:30:00,24.1,15.7,30.18,West,263,0.0,7.0,70,0.00,,,0.14,Wunderground v.1.15,2013-03-03 02:30:00,
2013-03-02 20:40:00,24.1,16.1,30.18,West,263,0.0,7.0,71,0.00,,,0.14,Wunderground v.1.15,2013-03-03 02:40:00,
2013-03-02 20:50:00,24.1,16.1,30.18,West,263,0.0,7.0,71,0.00,,,0.14,Wunderground v.1.15,2013-03-03 02:50:00,
2013-03-02 21:00:00,24.1,16.1,30.18,West,263,0.0,7.0,71,0.00,,,0.14,Wunderground v.1.15,2013-03-03 03:00:00,
2013-03-02 21:10:00,24.1,16.4,30.18,West,263,0.0,7.0,72,0.00,,,0.14,Wunderground v.1.15,2013-03-03 03:10:00,
2013-03-02 21:20:00,24.2,16.5,30.18,West,263,0.0,7.0,72,0.00,,,0.14,Wunderground v.1.15,2013-03-03 03:20:00,
2013-03-02 21:30:00,24.2,16.5,30.18,West,263,0.0,7.0,72,0.00,,,0.14,Wunderground v.1.15,2013-03-03 03:30:00,
2013-03-02 21:40:00,24.2,16.8,30.18,West,263,0.0,7.0,73,0.00,,,0.14,Wunderground v.1.15,2013-03-03 03:40:00,
2013-03-02 21:50:00,24.4,17.0,30.17,West,263,0.0,7.0,73,0.00,,,0.14,Wunderground v.1.15,2013-03-03 03:50:00,
2013-03-02 22:00:00,24.4,17.0,30.17,West,263,0.0,7.0,73,0.00,,,0.14,Wunderground v.1.15,2013-03-03 04:00:00,
2013-03-02 22:10:00,24.2,16.8,30.17,West,263,0.0,7.0,73,0.00,,,0.14,Wunderground v.1.15,2013-03-03 04:10:00,
2013-03-02 22:20:00,24.2,16.8,30.17,West,263,0.0,7.0,73,0.00,,,0.14,Wunderground v.1.15,2013-03-03 04:20:00,
2013-03-02 22:30:00,24.1,16.7,30.17,West,263,0.0,7.0,73,0.00,,,0.14,Wunderground v.1.15,2013-03-03 04:30:00,
2013-03-02 22:40:00,24.1,16.7,30.17,West,263,0.0,7.0,73,0.00,,,0.14,Wunderground v.1.15,2013-03-03 04:40:00,
2013-03-02 22:50:00,24.1,17.0,30.17,West,263,0.0,7.0,74,0.00,,,0.14,Wunderground v.1.15,2013-03-03 04:50:00,
2013-03-02 23:00:00,24.1,17.0,30.16,West,263,0.0,7.0,74,0.00,,,0.14,Wunderground v.1.15,2013-03-03 05:00:00,
2013-03-02 23:10:00,23.9,16.8,30.16,West,263,0.0,7.0,74,0.00,,,0.14,Wunderground v.1.15,2013-03-03 05:10:00,
2013-03-02 23:20:00,24.1,17.0,30.16,West,263,0.0,7.0,74,0.00,,,0.14,Wunderground v.1.15,2013-03-03 05:20:00,
2013-03-02 23:30:00,23.9,16.8,30.15,West,263,0.0,7.0,74,0.00,,,0.14,Wunderground v.1.15,2013-03-03 05:30:00,
2013-03-02 23:40:00,23.9,16.8,30.15,West,263,0.0,7.0,74,0.00,,,0.14,Wunderground v.1.15,2013-03-03 05:40:00,
2013-03-02 23:50:00,23.9,16.8,30.15,West,263,0.0,7.0,74,0.00,,,0.14,Wunderground v.1.15,2013-03-03 05:50:00,